Location: Unspecified
(47.9110°N, 14.3980°E)
Time: 21:51:38
(UTC+00:00)

SL-8 R/B - Pass Details

Date: 06 August 2020
Orbit: 657 x 667 km, 48.4° (Epoch: 21 September)

Event Time Altitude Azimuth Distance (km) Brightness Sun altitude
Rises 19:18:36 0° 284° (WNW) 3,005 8.6 -7.9°
Reaches altitude 10° 19:20:57 10° 282° (WNW) 2,091 7.5 -8.2°
Maximum altitude 19:25:46 69° 200° (SSW) 713 3.8 -8.8°
Enters shadow 19:30:12 12° 118° (ESE) 1,954 5.5 -9.4°
